DW4273 Weather Reports


time (UTC)temp
F
wind
direction
speed
knots
gust
knots
rain 1hr
in
rain 24hr
in
rain mn
in
humidity
%
barometer
mb
20260510225516 56 0.0 3.5 0.00 0.12 0.00 46 1016.4
20260510224516 56 0.0 2.6 0.00 0.12 0.00 44 1016.5
20260510223516 57 23 1.7 6.1 0.00 0.12 0.00 43 1016.5
20260510222516 57 0.0 0.9 0.00 0.12 0.00 45 1016.2
20260510221516 57 0.0 2.6 0.00 0.12 0.00 44 1016.2
20260510220536 57 0.0 3.5 0.00 0.12 0.00 43 1016.0
20260510215536 58 293 0.9 3.5 0.00 0.12 0.00 41 1016.1
20260510214516 58 0 0.9 4.3 0.00 0.12 0.00 43 1015.8
20260510213516 58 23 0.9 7.8 0.00 0.12 0.00 42 1015.7
20260510212516 58 0 0.9 7.0 0.00 0.12 0.00 43 1015.7
20260510211516 58 45 2.6 7.0 0.00 0.12 0.00 44 1015.6
20260510210556 57 0 4.3 10.4 0.00 0.12 0.00 40 1015.6
20260510205516 57 23 2.6 7.8 0.00 0.12 0.00 40 1015.6
20260510204556 58 338 2.6 7.8 0.00 0.12 0.00 39 1015.5
20260510203516 57 0 5.2 12.2 0.00 0.12 0.00 38 1015.6
20260510202536 57 338 2.6 7.8 0.00 0.12 0.00 38 1015.6
20260510201536 58 338 2.6 7.0 0.00 0.12 0.00 40 1015.6
20260510200517 58 0 2.6 10.4 0.00 0.12 0.00 43 1015.7
20260510195537 58 0 4.3 9.6 0.00 0.12 0.00 39 1015.8
20260510194537 58 0 1.7 9.6 0.00 0.12 0.00 38 1015.6
20260510193516 58 0 5.2 11.3 0.00 0.12 0.00 39 1015.6
20260510192516 58 293 2.6 7.0 0.00 0.12 0.00 39 1015.5
20260510191536 58 0 2.6 7.0 0.00 0.12 0.00 41 1015.7
20260510190516 58 23 0.9 8.7 0.00 0.12 0.00 41 1015.7
20260510185537 58 0 5.2 9.6 0.00 0.12 0.00 39 1015.6
20260510184516 58 0 0.9 3.5 0.00 0.12 0.00 38 1015.4
20260510183516 58 338 1.7 7.8 0.00 0.12 0.00 42 1015.5
20260510182517 58 293 2.6 6.1 0.00 0.12 0.00 42 1015.4
20260510181516 58 23 2.6 8.7 0.00 0.12 0.00 42 1015.1
20260510180516 57 315 2.6 8.7 0.00 0.12 0.00 48 1015.2
20260510175536 57 0 4.3 7.8 0.00 0.12 0.00 42 1015.1
20260510175104 58 0 4.3 8.7 0.00 0.12 0.00 44 1015.2
20260510174516 57 23 1.7 6.1 0.00 0.12 0.00 44 1015.2
20260510173516 58 338 1.7 9.6 0.00 0.12 0.00 47 1015.3
20260510172516 57 338 1.7 7.0 0.00 0.12 0.00 46 1015.3
20260510171557 57 23 1.7 7.0 0.00 0.12 0.00 44 1015.4
20260510170516 57 0 3.5 10.4 0.00 0.12 0.00 49 1015.5
20260510165516 57 0 0.9 7.0 0.00 0.12 0.00 49 1015.4
20260510164516 56 270 0.9 7.0 0.00 0.12 0.00 49 1015.3
20260510163516 56 23 1.7 7.8 0.00 0.12 0.00 52 1015.2
20260510162517 56 315 2.6 7.0 0.00 0.12 0.00 52 1015.1
20260510161536 55 315 3.5 9.6 0.00 0.12 0.00 49 1014.9
20260510160516 55 23 3.5 8.7 0.00 0.12 0.00 51 1014.9
20260510155536 55 23 1.7 7.0 0.00 0.12 0.00 55 1015.0
20260510154516 54 45 0.9 5.2 0.00 0.12 0.00 55 1014.8
20260510153537 54 23 3.5 7.0 0.00 0.12 0.00 52 1014.7
20260510152517 54 0 0.9 5.2 0.00 0.12 0.00 56 1014.7
20260510151537 53 0 2.6 7.0 0.00 0.12 0.00 55 1014.8
20260510150517 53 0 4.3 10.4 0.00 0.12 0.00 58 1014.6
20260510145516 52 23 3.5 8.7 0.00 0.12 0.00 57 1014.3
20260510144517 52 68 5.2 12.2 0.00 0.12 0.00 58 1014.3
20260510143516 51 0 2.6 9.6 0.00 0.12 0.00 63 1014.1
20260510142537 51 0 3.5 8.7 0.00 0.12 0.00 62 1014.2
20260510141537 51 45 4.3 10.4 0.00 0.12 0.00 64 1014.0
20260510140517 50 0 4.3 8.7 0.00 0.12 0.00 63 1014.0
20260510135516 50 45 5.2 9.6 0.00 0.12 0.00 66 1013.9
20260510134516 50 0 0.9 4.3 0.00 0.12 0.00 70 1014.0
20260510133536 49 0 4.3 7.8 0.00 0.12 0.00 67 1013.8
20260510132516 49 45 4.3 7.8 0.00 0.12 0.00 69 1013.7
20260510131517 48 0 3.5 9.6 0.00 0.12 0.00 72 1013.4
20260510130517 48 23 4.3 7.8 0.00 0.12 0.00 75 1013.3
20260510125017 48 23 4.3 10.4 0.00 0.12 0.00 78 1013.1
20260510124017 47 23 3.5 9.6 0.00 0.12 0.00 80 1012.7
20260510123016 47 23 2.6 7.0 0.00 0.12 0.00 82 1012.6
20260510122016 47 23 1.7 6.1 0.00 0.12 0.00 83 1012.6
20260510121017 47 0 0.9 5.2 0.00 0.12 0.00 84 1012.2
20260510120017 47 0 2.6 6.1 0.00 0.12 0.00 84 1011.9
20260510115017 47 0 2.6 6.1 0.00 0.12 0.00 84 1011.9
20260510114017 48 338 2.6 7.0 0.00 0.12 0.00 85 1011.9
20260510113016 48 0 0.9 5.2 0.00 0.12 0.00 85 1011.6
20260510112016 47 0 0.9 5.2 0.00 0.12 0.00 85 1011.6
20260510111017 47 23 0.9 3.5 0.00 0.12 0.00 85 1011.4
20260510110017 47 0 1.7 6.1 0.00 0.12 0.00 85 1011.1
20260510105016 47 0.0 0.0 0.00 0.12 0.00 85 1011.0
20260510104017 47 0.0 0.9 0.00 0.12 0.00 85 1010.8
20260510103017 47 0.0 0.0 0.00 0.12 0.00 85 1010.5
20260510102037 46 0.0 0.0 0.00 0.12 0.00 85 1010.2
20260510101017 46 0.0 0.0 0.00 0.12 0.00 85 1010.2
20260510100017 46 0.0 0.0 0.00 0.12 0.00 84 1009.9
20260510095603 46 0.0 0.0 0.00 0.12 0.00 84 1009.9
20260510095017 46 0.0 0.0 0.00 0.12 0.00 84 1009.9
20260510094017 46 0.0 0.0 0.00 0.12 0.00 84 1009.9
20260510093037 46 0.0 0.0 0.00 0.12 0.00 84 1009.7
20260510092017 46 0.0 0.0 0.00 0.12 0.00 84 1009.6
20260510091017 46 0.0 0.0 0.00 0.12 0.00 84 1009.4
20260510090017 47 0.0 0.0 0.00 0.12 0.00 83 1009.0
20260510085017 47 0.0 0.0 0.00 0.12 0.00 83 1009.0
20260510084037 47 0.0 0.0 0.00 0.12 0.00 83 1008.8
20260510083017 48 0.0 0.0 0.00 0.12 0.00 82 1008.7
20260510082017 49 0.0 0.0 0.00 0.12 0.00 82 1008.6
20260510081037 49 0.0 0.0 0.00 0.12 0.00 79 1008.4
20260510080017 49 0.0 0.0 0.00 0.12 0.00 79 1008.5
20260510075017 50 0.0 0.0 0.00 0.12 0.00 79 1008.4
20260510074017 50 0.0 0.0 0.00 0.12 0.00 79 1008.4
20260510073137 50 23 0.9 5.2 0.00 0.12 0.00 78 1008.1
20260510072017 50 23 2.6 6.1 0.00 0.13 0.00 79 1008.1
20260510071017 51 45 1.7 6.1 0.00 0.13 0.00 84 1008.0
20260510070017 53 338 5.2 9.6 0.00 0.13 0.00 88 1007.7
20260510065529 54 338 1.7 4.3 0.00 0.13 0.00 87 1007.6
20260510065017 54 338 2.6 6.1 0.00 0.13 0.00 87 1007.5
20260510064017 55 315 0.9 6.1 0.00 0.15 0.00 86 1007.3
20260510063017 55 338 0.9 6.1 0.00 0.15 0.00 86 1007.1
20260510062017 56 293 1.7 6.1 0.00 0.15 0.00 87 1006.9
20260510061037 56 0.0 2.6 0.00 0.16 0.00 87 1006.7
20260510060017 56 0.0 2.6 0.00 0.16 0.00 87 1006.7
20260510055017 56 0.0 1.7 0.00 0.18 0.00 87 1006.7
20260510054057 56 248 3.5 8.7 0.00 0.20 0.00 88 1006.6
20260510053037 55 248 4.3 8.7 0.00 0.22 0.00 89 1006.4
20260510052017 55 225 4.3 8.7 0.00 0.22 0.00 90 1006.2
20260510051017 55 225 4.3 7.8 0.00 0.22 0.00 91 1006.1
20260510050017 55 225 3.5 8.7 0.00 0.24 0.00 91 1006.0
20260510045017 54 203 3.5 8.7 0.00 0.27 0.00 92 1005.8
20260510044037 54 0.0 3.5 0.00 0.28 0.00 91 1005.8
20260510043017 54 0.0 0.0 0.01 0.29 0.00 91 1005.6
20260510042017 54 0.0 0.9 0.01 0.30 0.00 90 1005.7
20260510041017 54 0.0 0.0 0.01 0.32 0.00 90 1005.6
20260510040057 54 0.0 0.0 0.01 0.33 0.33 89 1005.4
20260510035037 55 0.0 0.9 0.01 0.33 0.33 88 1005.5
20260510034017 55 203 0.9 5.2 0.01 0.34 0.33 88 1005.5
20260510033016 56 0.0 3.5 0.01 0.33 0.32 87 1005.7
20260510032016 56 225 1.7 5.2 0.01 0.33 0.32 87 1005.3
20260510031029 57 0.0 0.0 0.01 0.33 0.32 86 1005.0
20260510030017 57 158 1.7 5.2 0.01 0.33 0.32 86 1005.1
20260510025017 57 225 0.9 6.1 0.01 0.33 0.32 86 1005.5
20260510024017 57 248 0.9 4.3 0.01 0.33 0.32 86 1005.3
20260510023016 56 270 3.5 9.6 0.00 0.32 0.31 87 1005.8
20260510022017 56 248 2.6 5.2 0.00 0.33 0.31 88 1005.6
20260510021016 56 225 0.9 4.3 0.00 0.33 0.31 88 1005.2
20260510020037 56 225 0.9 3.5 0.00 0.33 0.31 88 1004.9
20260510015016 56 0.0 2.6 0.00 0.34 0.31 88 1004.6
20260510014037 56 0.0 0.0 0.00 0.35 0.31 87 1004.5
20260510013057 56 0.0 0.0 0.00 0.35 0.31 86 1004.4
20260510012017 56 0.0 0.0 0.00 0.35 0.31 85 1004.2
20260510011017 57 0.0 0.9 0.00 0.36 0.31 85 1004.0
20260510010016 57 0.0 3.5 0.00 0.36 0.31 85 1004.0
20260510005016 57 225 2.6 6.1 0.01 0.36 0.31 85 1004.0
20260510004017 57 225 4.3 7.0 0.01 0.37 0.31 84 1003.7
20260510003037 57 248 8.7 14.8 0.06 0.37 0.31 85 1003.9
20260510002016 57 248 7.8 15.6 0.10 0.37 0.31 86 1003.9
20260510001017 56 248 6.1 10.4 0.10 0.38 0.31 87 1004.0
20260510000117 56 248 4.3 9.6 0.10 0.39 0.31 87 1004.0
20260509235017 56 270 4.3 8.7 0.09 0.38 0.30 86 1004.3
20260509234017 57 270 5.2 14.8 0.09 0.39 0.30 84 1004.4
20260509233016 58 270 4.3 11.3 0.04 0.35 0.26 80 1004.0
20260509232017 61 315 7.8 16.5 0.00 0.32 0.21 74 1004.3
20260509231016 67 248 9.6 16.5 0.00 0.33 0.21 62 1003.6
20260509230017 68 225 7.0 13.9 0.00 0.35 0.21 56 1002.5